Regional Weather Roundup
Issued by NWS Green Bay, WI

Home | Current Version | Previous Version | Graphics & Text | Print | Product List | Glossary Off
Versions: 1 2 3 4 5 6 7 8 9 10 11 12 13 14 15 16 17 18 19 20 21 22 23 24 25 26 27 28 29 30 31 32 33 34 35 36 37 38 39 40 41 42 43 44 45 46 47 48 49 50

000
ASUS43 KGRB 221859
RWRGRB

NORTH-CENTRAL AND NORTHEAST WISCONSIN REGIONAL WEATHER ROUNDUP
NATIONAL WEATHER SERVICE GREEN BAY WI
200 PM CDT TUE JUL 22 2014

WIZ005-009-010>012-018-019-222000-
NORTH CENTRAL WISCONSIN

CITY           SKY/WX    TMP DP  RH WIND       PRES   REMARKS
IRONWOOD       CLOUDY    70  63  78 NW12G18   29.92R
MANITOWISH WTR NOT AVBL
ARBOR VITAE    NOT AVBL
EAGLE RIVER    NOT AVBL
LAND O LAKES   NOT AVBL
RHINELANDER    PTSUNNY   79  65  62 W15G23    29.95R
PHILLIPS       NOT AVBL
ANTIGO         NOT AVBL
TOMAHAWK       NOT AVBL
MERRILL        NOT AVBL
$$

WIZ013-073-222000-
NORTHEAST WISCONSIN

CITY           SKY/WX    TMP DP  RH WIND       PRES   REMARKS
IRON MOUNTAIN  PTSUNNY   84  64  50 NW14G24   29.85R
MARINETTE      MOSUNNY   88  73  62 SW13      29.80S HX  96
$$

WIZ017-030-035>037-045-222000-
CENTRAL WISCONSIN

CITY           SKY/WX    TMP DP  RH WIND       PRES   REMARKS
MEDFORD        NOT AVBL
WAUSAU         MOSUNNY   86  65  49 NW16      29.91R
MOSINEE        MOSUNNY   84  64  51 W15G22    29.94R
MARSHFIELD     MOSUNNY   84  66  54 NW17G26   29.95R
WISC RAPIDS    MOSUNNY   88  68  51 NW17      29.93R HX  91
STEVENS POINT  NOT AVBL
WAUPACA        NOT AVBL
SHAWANO        NOT AVBL
CLINTONVILLE   NOT AVBL
$$

WIZ038-039-048-051-222000-
FOX VALLEY

CITY           SKY/WX    TMP DP  RH WIND       PRES   REMARKS
NWS GREEN BAY  MOSUNNY   89  75  63 W8        29.86R HX  99
APPLETON       PTSUNNY   84  72  65 W13       29.89R
OSHKOSH        MOSUNNY   88  75  65 W12G18    29.88R HX  97
FOND DU LAC    MOSUNNY   88  74  63 W12       29.88S HX  96
$$

WIZ022-050-052-222000-
EAST CENTRAL WISCONSIN

CITY           SKY/WX    TMP DP  RH WIND       PRES   REMARKS
STURGEON BAY   SUNNY     88  72  58 SW16G24   29.84S HX  94
MANITOWOC      NOT AVBL
SHEBOYGAN      SUNNY     87  74  64 SW14      29.86F HX  95
$$

LMZ563-521-522-541>543-222000-
LAKESHORE

STATION/POSITION TIME  TEMP    WIND        PRES    VSBY  WAVE
                       AIR SEA DIR/SP/G                  HT/PER
                 (UTC) (F)     (DEG/KT/KT) (MB)    (MI)  (FT/S)
SHEBOYGAN LKSHOR 1800   67     170/ 22/ 23 1011.3F
KEWAUNEE LKSHORE 1800   65     190/  6/ 13 1011.5F
TWO RIVERS CG    1800   64                   N/A    3 1/2  3
NORTHPORT PIER   1800   71     140/ 12/ 17 1009.1F
N MID LAKE BUOY  1800   62 57  210/ 21/ 25 1008.6F         6/ 6
CHAMBERS ISLAND  1800   83     190/  9/ 14 1009.1F
MENOMINEE LKSHOR 1800   85     240/ 12/ 20 1010.1F
$$


USA.gov is the U.S. government's official web portal to all federal, state and local government web resources and services.